Location: Kerguer�zec
(48.4509°N, 4.7600°W)
Time: 23:30:35
(UTC+00:00)

N. Korean satellite - Pass Details

Date: 08 March 2021
Orbit: 453 x 499 km, 97.2° (Epoch: 12 April)

Event Time Altitude Azimuth Distance (km) Brightness Sun altitude
Rises 04:43:57 0° 30° (NNE) 2,541 10.9 -20.9°
Reaches altitude 10° 04:46:46 10° 55° (NE) 1,667 10.3 -20.5°
Maximum altitude 04:48:51 15° 91° (E) 1,403 9.9 -20.2°
Drops below altitude 10° 04:50:56 10° 126° (SE) 1,673 9.8 -19.8°
Sets 04:53:46 0° 151° (SSE) 2,557 10.4 -19.4°
